Regional Weather Roundup
Issued by NWS Goodland, KS

Home | Current Version | Previous Version | Text Only | Print | Product List | Glossary Off
Versions: 1 2 3 4 5 6 7 8 9 10 11 12 13 14 15 16 17 18 19 20 21 22 23 24 25 26 27 28 29 30 31 32 33 34 35 36 37 38 39 40 41 42 43 44 45 46 47 48 49 50

000
ASUS43 KGLD 231308
RWRGLD

GOODLAND FORECAST AREA HOURLY WEATHER ROUNDUP
NATIONAL WEATHER SERVICE GOODLAND KS
700 AM MDT WED JUL 23 2014

...OFFICIAL OBSERVATIONS...

CITY           SKY/WX    TMP DP  RH WIND       PRES   REMARKS
GOODLAND KS    CLOUDY    68  67  96 SE14      30.28F FOG
HILL CITY KS   CLOUDY    72  67  84 NE8       30.23S
IMPERIAL NEB   CLOUDY    68  65  90 E9        30.31R
MCCOOK NEB     MOSUNNY   69  64  84 E7        30.27S
AKRON CO       CLOUDY    66  64  93 SE14G23   30.32F FOG
BURLINGTON CO  FOG       67  66  97 SE14      30.31F VSB 1/2
LIMON CO       SUNNY     65  59  81 E3        30.37R
$$

...UNOFFICIAL OBSERVATIONS...

CITY           SKY/WX    TMP DP  RH WIND       PRES   REMARKS
COLBY KS       CLOUDY    70  70 100 E15       30.27S
GOVE KS          N/A     71  32  23 MISG        N/A
NORTON KS      SUNNY     70  61  73 NE7       30.24S
OBERLIN KS     CLOUDY    70  64  83 E8        30.26F
SHARON SPRINGS   N/A     69  67  95 CALM        N/A
ST FRANCIS KS  CLOUDY    70  64  83 SE15      30.27R FOG
TRIBUNE KS     SUNNY     68  63  83 NE9       30.30R
WAKEENEY KS      N/A     71  68  91 MISG        N/A
KIT CARSON CO    N/A     66  62  88 N5G12       N/A
YUMA CO          N/A     68  67  96 SE10G17     N/A
$$


USA.gov is the U.S. government's official web portal to all federal, state and local government web resources and services.